This is the latest recevied weather packets stored in our database for station/object K0QED. If no packets are shown the sender has not sent any weather packets the latest 10 day(s).
| Time | Temp. | Humidity | Pressure | Rain* | Wind** | Luminosity | Snow |
|---|---|---|---|---|---|---|---|
| 1788147774 | 63° F | 56% | 770.6 mmHg | 0 in | - | 0 W/m² | - |
| 1788147469 | 63° F | 57% | 770.6 mmHg | 0 in | - | 0 W/m² | - |
| 1788147169 | 63° F | 57% | 770.6 mmHg | 0 in | - | 0 W/m² | - |
| 1788146864 | 63° F | 57% | 770.5 mmHg | 0 in | - | 0 W/m² | - |
| 1788146559 | 64° F | 57% | 770.3 mmHg | 0 in | - | 0 W/m² | - |
| 1788146254 | 64° F | 57% | 770.4 mmHg | 0 in | - | 0 W/m² | - |
| 1788145948 | 64° F | 56% | 770.5 mmHg | 0 in | - | 0 W/m² | - |
| 1788145648 | 64° F | 55% | 770.5 mmHg | 0 in | - | 0 W/m² | - |
| 1788145347 | 64° F | 55% | 770.2 mmHg | 0 in | - | 0 W/m² | - |
| 1788145046 | 64° F | 54% | 770.2 mmHg | 0 in | - | 0 W/m² | - |
| 1788144740 | 64° F | 56% | 770.1 mmHg | 0 in | - | 0 W/m² | - |
| 1788144437 | 62° F | 61% | 770.2 mmHg | 0 in | - | 0 W/m² | - |
| 1788144135 | 62° F | 64% | 770.2 mmHg | 0 in | - | 0 W/m² | - |
| 1788143834 | 62° F | 64% | 770.3 mmHg | 0 in | - | 0 W/m² | - |
| 1788143528 | 62° F | 64% | 769.9 mmHg | 0 in | - | 0 W/m² | - |
| 1788143223 | 62° F | 65% | 769.9 mmHg | 0 in | - | 0 W/m² | - |
| 1788142917 | 62° F | 66% | 769.9 mmHg | 0 in | - | 0 W/m² | - |
| 1788142616 | 62° F | 65% | 769.9 mmHg | 0 in | - | 0 W/m² | - |
| 1788142312 | 62° F | 66% | 769.9 mmHg | 0 in | - | 0 W/m² | - |
| 1788142008 | 62° F | 67% | 769.9 mmHg | 0 in | - | 0 W/m² | - |
| 1788141708 | 62° F | 67% | 769.6 mmHg | 0 in | - | 0 W/m² | - |
| 1788141404 | 62° F | 66% | 769.6 mmHg | 0 in | - | 0 W/m² | - |
| 1788141103 | 62° F | 67% | 769.6 mmHg | 0 in | - | 0 W/m² | - |
| 1788140798 | 62° F | 67% | 769.7 mmHg | 0 in | - | 0 W/m² | - |
| 1788140493 | 62° F | 67% | 769.6 mmHg | 0 in | - | 0 W/m² | - |
* Rain latest hour (hover to see other rain measurements)
** Current wind speed in m/s (hover to see current wind gust speed)